Orbital Elements at Epoch 2459200.5 (2020-Dec-17.0) TDB
Reference: JPL 32 (heliocentric ecliptic J2000)
Element | Value | Uncertainty (1-sigma) | Units |
e | .1013086958448225 | 1.1208e-08 | |
a | 2.564794217563898 | 9.2885e-09 | au |
q | 2.304958260272157 | 3.2298e-08 | au |
i | 14.19323328273953 | 1.1901e-06 | deg |
node | 48.84871164511281 | 3.5376e-06 | deg |
peri | 87.78336273920047 | 1.0771e-05 | deg |
M | 325.8387176038746 | 1.1143e-05 | deg |
tp | 2459342.866851458395 (2021-May-08.36685146) | 4.6573e-05 | TDB |
period | 1500.296913058368 4.11 | 8.1501e-06 2.231e-08 | d yr |
n | .2399525033122523 | 1.3035e-09 | deg/d |
Q | 2.824630174855638 | 1.023e-08 | au |
|
| | Orbit Determination Parameters
Additional Information
|